AD8BW Weather Reports


time (UTC)temp
F
wind
direction
speed
knots
gust
knots
rain 1hr
in
rain 24hr
in
rain mn
in
humidity
%
barometer
mb
20260904062629 66 265 0.0 0.0 0.00 0.00 0.00 95 1015.7
20260904061628 66 265 0.0 0.0 0.00 0.00 0.00 95 1015.7
20260904060630 66 265 0.0 0.0 0.00 0.00 0.00 95 1015.6
20260904055628 66 265 0.0 0.0 0.00 0.00 0.00 95 1015.7
20260904054622 66 265 0.0 0.0 0.00 0.00 0.00 95 1015.7
20260904053623 66 265 0.0 0.0 0.00 0.00 0.00 95 1015.8
20260904052624 66 265 0.0 0.0 0.00 0.00 0.00 95 1015.7
20260904051621 66 265 0.0 0.0 0.00 0.00 0.00 95 1015.7
20260904050622 66 265 0.0 0.0 0.00 0.00 0.00 95 1015.9
20260904045625 66 265 0.0 0.0 0.00 0.00 0.00 95 1015.8
20260904044624 67 265 0.0 0.0 0.00 0.00 0.00 95 1015.8
20260904043623 67 265 0.0 0.0 0.00 0.00 0.00 95 1015.8
20260904042621 67 265 0.0 0.0 0.00 0.00 0.00 95 1015.9
20260904041620 67 265 0.0 0.0 0.00 0.00 0.00 95 1015.7
20260904040622 67 265 0.0 0.0 0.00 0.00 0.00 95 1015.5
20260904035618 67 265 0.0 0.0 0.00 0.00 0.99 95 1015.5
20260904034621 67 265 0.0 0.0 0.00 0.00 0.99 95 1015.1
20260904033620 67 265 0.0 0.0 0.00 0.00 0.99 95 1015.0
20260904032620 67 265 0.0 0.0 0.00 0.00 0.99 95 1014.9
20260904031619 67 265 0.0 0.0 0.00 0.00 0.99 95 1014.9
20260904030619 68 265 0.0 0.0 0.00 0.00 0.99 95 1015.0
20260904025628 68 265 0.0 0.0 0.00 0.00 0.99 95 1014.8
20260904024631 68 265 0.0 0.0 0.00 0.00 0.99 95 1014.8
20260904023815 68 265 0.0 0.0 0.00 0.99 0.99 95 1014.8
20260904022814 68 265 0.0 0.0 0.00 0.99 0.99 95 1014.8
20260904021819 68 265 0.0 0.0 0.00 0.99 0.99 95 1014.8
20260904020815 68 265 0.0 0.0 0.00 0.99 0.99 95 1014.8
20260904015815 69 265 0.0 0.0 0.00 0.99 0.99 95 1014.8
20260904014817 69 265 0.0 0.0 0.00 0.99 0.99 95 1014.9
20260904013817 69 265 0.0 0.0 0.00 0.99 0.99 95 1015.1
20260904012812 69 265 0.0 0.0 0.00 0.99 0.99 95 1015.2
20260904011814 69 265 0.0 0.0 0.00 0.99 0.99 95 1015.1
20260904010816 69 265 0.0 0.0 0.00 0.99 0.99 95 1015.0
20260904005813 69 265 0.0 0.0 0.00 0.99 0.99 95 1014.8
20260904004815 69 265 0.0 0.0 0.00 0.99 0.99 95 1014.7
20260904003815 69 265 0.0 0.0 0.00 0.99 0.99 95 1014.2
20260904002814 69 265 0.0 0.0 0.00 0.99 0.99 95 1014.1
20260904001813 70 265 0.0 3.5 0.00 0.99 0.99 95 1014.1
20260904000812 70 195 3.5 6.1 0.00 0.99 0.99 95 1013.9
20260903235817 70 187 1.7 6.1 0.00 0.99 0.99 95 1013.9
20260903234817 70 188 1.7 9.6 0.00 0.99 0.99 95 1013.8
20260903233803 70 181 0.0 7.8 0.00 0.99 0.99 95 1013.8
20260903232807 70 196 1.7 7.8 0.00 0.99 0.99 95 1013.5
20260903231806 70 190 3.5 6.1 0.00 0.99 0.99 95 1013.3
20260903230806 70 176 0.0 3.5 0.00 0.99 0.99 95 1013.0
20260903225804 70 176 0.0 0.0 0.00 0.99 0.99 95 1013.1
20260903224806 70 176 0.0 0.0 0.00 0.99 0.99 95 1013.5
20260903223803 70 176 1.7 3.5 0.00 0.99 0.99 95 1013.7
20260903222808 70 176 1.7 3.5 0.00 0.99 0.99 95 1014.2
20260903221811 70 194 0.0 0.0 0.00 0.99 0.99 95 1014.1
20260903220802 70 194 0.0 3.5 0.00 0.99 0.99 95 1014.3
20260903215805 70 179 0.0 3.5 0.00 0.99 0.99 95 1014.2
20260903214805 70 159 0.0 3.5 0.00 0.99 0.99 95 1014.2
20260903213804 70 194 1.7 4.3 0.01 0.99 0.99 95 1014.3
20260903212805 70 178 0.0 4.3 0.02 0.99 0.99 95 1014.6
20260903211802 70 0 0.0 3.5 0.04 0.99 0.99 94 1014.4
20260903210805 70 30 0.0 4.3 0.04 0.99 0.99 94 1014.4
20260903205800 70 42 0.0 4.3 0.05 0.99 0.99 94 1014.4
20260903204801 70 16 1.7 4.3 0.12 0.99 0.99 94 1014.6
20260903203759 70 346 1.7 9.6 0.27 0.98 0.98 94 1014.8
20260903202802 69 355 1.7 4.3 0.26 0.97 0.97 93 1014.6
20260903201804 70 343 1.7 6.1 0.24 0.95 0.95 93 1015.0
20260903200759 70 317 3.5 7.8 0.24 0.95 0.95 93 1015.5
20260903195759 70 342 4.3 7.8 0.23 0.94 0.94 92 1014.8
20260903194805 71 350 6.1 13.9 0.16 0.87 0.87 92 1014.8
20260903193759 71 333 6.1 15.6 0.00 0.71 0.71 92 1014.9
20260903192801 72 298 0.0 6.1 0.00 0.71 0.71 93 1014.5
20260903191759 72 344 1.7 4.3 0.00 0.71 0.71 93 1013.8
20260903190755 73 294 1.7 7.8 0.00 0.71 0.71 93 1013.7
20260903185756 74 349 1.7 9.6 0.00 0.71 0.71 93 1014.2
20260903184753 74 184 0.0 3.5 0.00 0.71 0.71 94 1013.5
20260903183755 74 98 0.0 0.0 0.00 0.71 0.71 93 1013.5
20260903182753 74 98 0.0 0.0 0.00 0.71 0.71 94 1013.6
20260903181751 74 98 0.0 0.0 0.00 0.71 0.71 94 1013.5
20260903180755 74 98 0.0 0.0 0.00 0.71 0.71 94 1013.4
20260903175754 74 98 0.0 0.0 0.00 0.71 0.71 93 1013.4
20260903174752 74 98 0.0 0.0 0.00 0.71 0.71 94 1013.4
20260903173752 73 98 0.0 0.0 0.01 0.71 0.71 94 1013.3
20260903172756 73 98 0.0 0.0 0.20 0.71 0.71 94 1013.5
20260903171751 72 98 0.0 0.0 0.33 0.71 0.71 95 1013.4
20260903170751 72 98 0.0 0.0 0.33 0.71 0.71 94 1013.4
20260903165753 71 98 0.0 0.0 0.33 0.71 0.71 94 1013.5
20260903164756 70 345 0.0 1.7 0.33 0.71 0.71 94 1013.7
20260903163749 69 344 1.7 10.4 0.38 0.70 0.70 91 1013.7
20260903162752 69 203 4.3 23.5 0.33 0.51 0.53 89 1014.8
20260903161751 69 200 0.0 3.5 0.38 0.38 0.38 89 1014.9
20260903160751 69 217 0.0 4.3 0.38 0.38 0.38 87 1015.5
20260903155750 69 329 1.7 4.3 0.38 0.38 0.38 86 1015.5
20260903154750 70 156 6.1 15.6 0.38 0.38 0.38 84 1015.7
20260903153746 72 130 7.8 17.4 0.32 0.32 0.33 82 1016.2
20260903152751 76 282 4.3 27.8 0.18 0.18 0.18 82 1017.2
20260903151743 79 344 0.0 4.3 0.00 0.00 0.00 83 1016.3
20260903150743 79 198 0.0 0.0 0.00 0.00 0.00 81 1014.8
20260903145746 79 198 0.0 0.0 0.00 0.00 0.00 80 1014.4
20260903144745 79 198 0.0 0.0 0.00 0.00 0.00 80 1014.0
20260903143743 79 198 0.0 3.5 0.00 0.00 0.00 80 1014.1
20260903142741 79 182 0.0 6.1 0.00 0.00 0.00 80 1014.2
20260903141744 78 327 0.0 3.5 0.00 0.00 0.00 82 1014.1
20260903140740 78 327 0.0 1.7 0.00 0.00 0.00 84 1014.1
20260903135749 77 327 0.0 3.5 0.00 0.00 0.00 85 1014.0
20260903134744 77 316 0.0 3.5 0.00 0.00 0.00 85 1014.1
20260903133739 76 317 0.0 3.5 0.00 0.00 0.00 86 1014.3
20260903132736 75 193 0.0 3.5 0.00 0.00 0.00 89 1014.3
20260903131735 74 269 0.0 0.0 0.00 0.00 0.00 91 1014.2
20260903130736 73 233 0.0 0.0 0.00 0.00 0.00 93 1014.2
20260903125735 72 181 0.0 0.0 0.00 0.00 0.00 93 1014.3
20260903124737 72 181 0.0 0.0 0.00 0.00 0.00 92 1014.5
20260903123737 71 181 0.0 0.0 0.00 0.00 0.00 92 1014.4
20260903122736 71 181 0.0 0.0 0.00 0.00 0.00 92 1014.6
20260903121730 71 181 0.0 0.0 0.00 0.00 0.00 92 1014.6
20260903120731 71 181 0.0 0.0 0.00 0.00 0.00 91 1014.5
20260903115728 71 181 0.0 0.0 0.00 0.00 0.00 91 1014.6
20260903114728 71 181 0.0 0.0 0.00 0.00 0.00 91 1014.5
20260903113730 71 181 0.0 0.0 0.00 0.00 0.00 91 1014.5
20260903112729 71 181 1.7 3.5 0.00 0.00 0.00 91 1014.4
20260903111727 71 202 0.0 0.0 0.00 0.00 0.00 90 1014.3
20260903110727 71 202 0.0 0.0 0.00 0.00 0.00 90 1014.3
20260903105730 71 202 0.0 0.0 0.00 0.00 0.00 90 1014.2
20260903104729 71 202 0.0 0.0 0.00 0.00 0.00 90 1014.1
20260903103729 71 202 0.0 0.0 0.00 0.00 0.00 90 1013.9
20260903102728 71 202 0.0 0.0 0.00 0.00 0.00 90 1013.9
20260903101728 71 202 0.0 0.0 0.00 0.00 0.00 90 1013.8
20260903100729 71 202 0.0 0.0 0.00 0.00 0.00 90 1013.8
20260903095728 72 202 0.0 0.0 0.00 0.00 0.00 90 1013.9
20260903094727 72 202 0.0 0.0 0.00 0.00 0.00 90 1013.8
20260903093726 72 202 0.0 0.0 0.00 0.00 0.00 90 1013.8
20260903092726 72 202 0.0 0.0 0.00 0.00 0.00 90 1013.7
20260903091727 72 202 0.0 0.0 0.00 0.00 0.00 90 1013.5
20260903090728 72 202 0.0 0.0 0.00 0.00 0.00 90 1013.5
20260903085725 72 202 0.0 0.0 0.00 0.00 0.00 90 1013.5
20260903084726 72 202 0.0 0.0 0.00 0.00 0.00 90 1013.4
20260903083727 72 202 0.0 0.0 0.00 0.00 0.00 90 1013.3
20260903082725 72 202 0.0 0.0 0.00 0.00 0.00 90 1013.2
20260903081724 72 202 0.0 0.0 0.00 0.00 0.00 90 1013.2
20260903080725 72 202 0.0 0.0 0.00 0.00 0.00 90 1013.2
20260903075719 72 202 0.0 0.0 0.00 0.00 0.00 90 1013.3
20260903074722 72 202 0.0 0.0 0.00 0.00 0.00 90 1013.4
20260903073719 72 202 0.0 0.0 0.00 0.00 0.00 90 1013.3
20260903072720 72 202 0.0 0.0 0.00 0.00 0.00 90 1013.4
20260903071719 72 202 0.0 0.0 0.00 0.00 0.00 89 1013.4
20260903070720 72 202 0.0 0.0 0.00 0.00 0.00 89 1013.4
20260903065719 72 202 0.0 0.0 0.00 0.00 0.00 89 1013.3
20260903064718 73 202 0.0 0.0 0.00 0.00 0.00 89 1013.3
20260903063725 73 202 0.0 3.5 0.00 0.00 0.00 89 1013.1